DW7653 Weather Reports


time (UTC)temp
C
wind
direction
speed
KPH
gust
KPH
rain 1hr
cm
rain 24hr
cm
rain mn
cm
humidity
%
barometer
mb
20260505093035 12 360 0.0 0.0 0.00 0.00 0.00 65 1015.1
20260505091532 12 360 0.0 0.0 0.00 0.00 0.00 66 1015.0
20260505090036 13 360 0.0 0.0 0.00 0.00 0.00 66 1015.0
20260505084528 13 360 0.0 0.0 0.00 0.00 0.00 66 1014.9
20260505083026 13 360 0.0 0.0 0.00 0.00 0.00 66 1014.9
20260505081537 13 360 0.0 0.0 0.00 0.00 0.00 65 1014.9
20260505080027 13 360 0.0 0.0 0.00 0.00 0.00 65 1014.8
20260505074521 14 360 0.0 0.0 0.00 0.00 0.00 65 1014.7
20260505073023 14 360 0.0 0.0 0.00 0.00 0.00 65 1014.6
20260505071534 15 360 0.0 0.0 0.00 0.00 0.00 64 1014.5
20260505070016 15 360 0.0 0.0 0.00 0.00 0.00 63 1014.5
20260505064521 15 360 0.0 0.0 0.00 0.00 0.00 62 1014.5
20260505063014 15 360 0.0 0.0 0.00 0.00 0.00 61 1014.5
20260505061511 16 360 0.0 0.0 0.00 0.00 0.00 60 1014.5
20260505060009 16 360 0.0 0.0 0.00 0.00 0.00 60 1014.6
20260505054505 16 360 0.0 0.0 0.00 0.00 0.00 59 1014.6
20260505053004 16 360 0.0 0.0 0.00 0.00 0.00 59 1014.5
20260505051502 16 360 0.0 0.0 0.00 0.00 0.00 58 1014.6
20260505041555 17 360 0.0 0.0 0.00 0.00 0.00 53 1014.6
20260505040053 17 360 0.0 0.0 0.00 0.00 0.00 52 1014.5
20260505034551 17 360 0.0 0.0 0.00 0.00 0.00 51 1014.6
20260505033052 17 360 0.0 0.0 0.00 0.00 0.00 50 1014.6
20260505031550 17 360 0.0 0.0 0.00 0.00 0.00 48 1014.6
20260505030050 17 360 0.0 0.0 0.00 0.00 0.00 46 1014.6
20260505024548 17 360 0.0 0.0 0.00 0.00 0.00 48 1014.5
20260505023055 17 360 0.0 0.0 0.00 0.00 0.00 46 1014.4
20260505021548 17 360 0.0 0.0 0.00 0.00 0.00 46 1014.2
20260505020049 17 360 0.0 0.0 0.00 0.00 0.00 47 1014.2
20260505014547 17 360 0.0 0.0 0.00 0.00 0.00 45 1014.1
20260505013046 18 360 0.0 0.0 0.00 0.00 0.00 45 1013.7
20260505011551 19 360 0.0 0.0 0.00 0.00 0.00 42 1013.6
20260505010049 20 360 0.0 0.0 0.00 0.00 0.00 40 1013.5
20260505004544 21 360 0.0 0.0 0.00 0.00 0.00 37 1013.2
20260505003044 21 360 0.0 0.0 0.00 0.00 0.00 35 1013.1
20260505001543 22 360 0.0 0.0 0.00 0.00 0.00 34 1013.0
20260505000044 22 360 0.0 0.0 0.00 0.00 0.00 32 1012.9
20260504234543 23 360 0.0 0.0 0.00 0.00 0.00 30 1012.8
20260504233044 23 360 0.0 0.0 0.00 0.00 0.00 30 1012.7
20260504231542 23 360 0.0 0.0 0.00 0.00 0.00 29 1012.6
20260504230041 23 360 0.0 0.0 0.00 0.00 0.00 28 1012.7
20260504224541 23 360 0.0 0.0 0.00 0.00 0.00 28 1012.7
20260504223039 24 360 0.0 0.0 0.00 0.00 0.00 27 1012.7
20260504221541 24 360 0.0 0.0 0.00 0.00 0.00 26 1012.7
20260504220043 25 360 0.0 0.0 0.00 0.00 0.00 27 1012.8
20260504214548 25 360 0.0 0.0 0.00 0.00 0.00 25 1012.7
20260504213047 26 360 0.0 0.0 0.00 0.00 0.00 25 1012.7
20260504211537 26 360 0.0 0.0 0.00 0.00 0.00 24 1012.8
20260504210035 26 360 0.0 0.0 0.00 0.00 0.00 24 1012.9
20260504204534 26 360 0.0 0.0 0.00 0.00 0.00 23 1013.0
20260504203033 26 360 0.0 0.0 0.00 0.00 0.00 23 1013.1
20260504201530 26 360 0.0 0.0 0.00 0.00 0.00 23 1013.2
20260504200038 26 360 0.0 0.0 0.00 0.00 0.00 23 1013.3
20260504194525 26 360 0.0 0.0 0.00 0.00 0.00 24 1013.5
20260504193023 25 360 0.0 0.0 0.00 0.00 0.00 26 1013.7
20260504191535 25 360 0.0 0.0 0.00 0.00 0.00 23 1013.9
20260504190016 25 360 0.0 0.0 0.00 0.00 0.00 27 1014.2
20260504184513 23 360 0.0 0.0 0.00 0.00 0.00 29 1014.1
20260504183020 23 360 0.0 0.0 0.00 0.00 0.00 29 1014.2
20260504181506 23 360 0.0 0.0 0.00 0.00 0.00 27 1014.7
20260504180006 22 360 0.0 0.0 0.00 0.00 0.00 29 1014.6
20260504174503 22 360 0.0 0.0 0.00 0.00 0.00 29 1014.8
20260504173004 22 360 0.0 0.0 0.00 0.00 0.00 29 1015.0
20260504171501 22 360 0.0 0.0 0.00 0.00 0.00 28 1015.1
20260504170108 23 360 0.0 0.0 0.00 0.00 0.00 25 1015.5